Kenai, AK

12:48 PM AKDT on September 27, 2016 (GMT -0800)
Kenai Municipal

Weather History for PAEN - October, 2012

Change the Weather History Date:

Monday, October 8, 2012

  Actual Average Record
Temperature  
Mean Temperature 47 °F -  
Max Temperature 48 °F 45 °F 56 °F (1993)
Min Temperature 46 °F 32 °F 13 °F (1958)
Degree Days  
Heating Degree Days 18    
Moisture  
Dew Point 47 °F    
Average Humidity 98    
Maximum Humidity 100    
Minimum Humidity 93    
Precipitation  
Precipitation 0.03 in - - ()
Sea Level Pressure  
Sea Level Pressure 30.21 in    
Wind  
Wind Speed 5 mph (SSW)    
Max Wind Speed 14 mph    
Max Gust Speed -    
Visibility 6 miles    
Events Rain    
Averages and records for this station are not official NWS values.
T = Trace of Precipitation, MM = Missing Value Source: NWS Daily Summary

Daily Weather History Graph

Daily Weather History Graph

Search for Another Location

Airport or City:

Trip Planner

Search our weather history database for the weather conditions in past years. The results will help you decide how hot, cold, wet, or windy it might be!

Date:

Astronomy

Oct. 08, 2012 Rise Set
Actual Time 8:29 AM AKDT 7:13 PM AKDT
Civil Twilight 7:47 AM AKDT 7:55 PM AKDT
Nautical Twilight 6:58 AM AKDT 8:44 PM AKDT
Astronomical Twilight 6:07 AM AKDT 9:34 PM AKDT
Moon No Moon Rise 4:44 PM AKDT (10/8)
Length of Visible Light 12h 08m
Length of Day
10h 43m
Last Quarter, 45% of the Moon is Illuminated
Oct 8
Last Quarter
Oct 15
New
Oct 21
First Quarter
Oct 29
Full
Nov 6
Last Quarter

Hourly Weather History & Observations

Time (AKDT) Temp. Windchill Dew Point Humidity Pressure Visibility Wind Dir Wind Speed Gust Speed Precip Events Conditions
12:11 AM 46.4 °F - 46.4 °F 100% 30.25 in 10.0 mi Calm Calm - N/A   Overcast
12:30 AM 46.4 °F - 46.4 °F 100% 30.25 in 10.0 mi Calm Calm - N/A   Overcast
12:53 AM 46.0 °F - 46.0 °F 100% 30.26 in 10.0 mi Calm Calm - N/A   Overcast
1:53 AM 46.0 °F - 46.0 °F 100% 30.25 in 10.0 mi Calm Calm - N/A   Overcast
2:53 AM 46.9 °F - 46.9 °F 100% 30.24 in 10.0 mi South 6.9 mph - N/A   Overcast
3:34 AM 48.2 °F - 46.4 °F 93% 30.23 in 10.0 mi South 6.9 mph - N/A   Overcast
3:37 AM 48.2 °F - 46.4 °F 93% 30.22 in 10.0 mi South 6.9 mph - N/A   Overcast
3:44 AM 48.2 °F - 48.2 °F 100% 30.22 in 10.0 mi SSW 6.9 mph - N/A   Overcast
3:53 AM 48.0 °F - 48.0 °F 100% 30.23 in 10.0 mi SSW 9.2 mph - N/A   Overcast
4:38 AM 48.2 °F - 48.2 °F 100% 30.22 in 9.0 mi SSW 10.4 mph - N/A   Overcast
4:53 AM 48.0 °F - 48.0 °F 100% 30.22 in 3.0 mi South 9.2 mph - N/A   Overcast
4:57 AM 48.2 °F - 48.2 °F 100% 30.21 in 1.8 mi SSW 9.2 mph - N/A   Overcast
5:23 AM 48.2 °F - 48.2 °F 100% 30.21 in 2.5 mi South 8.1 mph - N/A   Overcast
5:53 AM 48.0 °F - 48.0 °F 100% 30.22 in 2.0 mi South 6.9 mph - N/A   Overcast
6:02 AM 46.4 °F 42.9 °F 46.4 °F 100% 30.21 in 1.8 mi South 6.9 mph - N/A   Overcast
6:18 AM 46.4 °F 43.5 °F 46.4 °F 100% 30.21 in 2.0 mi South 5.8 mph - N/A   Overcast
6:53 AM 46.9 °F - 46.9 °F 100% 30.21 in 2.5 mi South 5.8 mph - N/A   Overcast
7:51 AM 46.4 °F 42.9 °F 46.4 °F 100% 30.20 in 2.5 mi South 6.9 mph - N/A   Overcast
7:53 AM 46.9 °F - 46.9 °F 100% 30.21 in 2.5 mi South 8.1 mph - N/A   Overcast
8:00 AM 46.4 °F 42.4 °F 46.4 °F 100% 30.20 in 4.0 mi South 8.1 mph - N/A   Overcast
8:53 AM 48.0 °F - 48.0 °F 100% 30.21 in 4.0 mi SSW 11.5 mph - N/A   Overcast
9:30 AM 48.2 °F - 48.2 °F 100% 30.20 in 2.5 mi SW 10.4 mph - N/A   Overcast
9:53 AM 48.0 °F - 48.0 °F 100% 30.21 in 2.0 mi SSW 10.4 mph - 0.01 in Rain Light Rain
10:53 AM 46.9 °F - 46.9 °F 100% 30.21 in 2.0 mi SSE 5.8 mph - 0.01 in   Overcast
11:53 AM 46.9 °F - 46.9 °F 100% 30.21 in 2.0 mi South 8.1 mph - 0.00 in Rain Light Rain
12:53 PM 48.0 °F - 48.0 °F 100% 30.21 in 2.0 mi SSW 13.8 mph - 0.01 in   Overcast
1:53 PM 48.0 °F - 48.0 °F 100% 30.20 in 2.0 mi SW 12.7 mph - 0.00 in   Overcast
2:53 PM 46.9 °F - 46.9 °F 100% 30.20 in 10.0 mi SW 9.2 mph - N/A   Overcast
3:53 PM 46.9 °F - 46.9 °F 100% 30.19 in 5.0 mi SW 9.2 mph - N/A   Overcast
4:53 PM 46.9 °F - 46.9 °F 100% 30.19 in 2.0 mi SW 8.1 mph - N/A   Overcast
4:58 PM 46.4 °F 42.9 °F 46.4 °F 100% 30.19 in 1.8 mi SW 6.9 mph - N/A   Overcast
5:25 PM 46.4 °F 43.5 °F 46.4 °F 100% 30.18 in 3.0 mi SW 5.8 mph - N/A   Overcast
5:53 PM 46.9 °F - 46.0 °F 97% 30.19 in 6.0 mi WSW 5.8 mph - N/A   Overcast
6:53 PM 46.0 °F 41.9 °F 45.0 °F 96% 30.19 in 10.0 mi SSW 8.1 mph - N/A   Overcast
7:51 PM 46.4 °F - 44.6 °F 93% 30.17 in 10.0 mi Calm Calm - N/A   Overcast
7:53 PM 46.0 °F - 45.0 °F 96% 30.18 in 10.0 mi Calm Calm - N/A   Overcast
8:18 PM 46.4 °F 44.3 °F 44.6 °F 93% 30.17 in 8.0 mi SW 4.6 mph - N/A   Overcast
8:20 PM 46.4 °F 45.2 °F 44.6 °F 93% 30.17 in 8.0 mi SW 3.5 mph - N/A   Overcast
8:53 PM 46.0 °F 43.9 °F 45.0 °F 96% 30.18 in 10.0 mi SW 4.6 mph - N/A   Overcast
9:53 PM 46.0 °F 43.9 °F 45.0 °F 96% 30.18 in 10.0 mi SW 4.6 mph - N/A   Overcast
10:53 PM 46.0 °F - 45.0 °F 96% 30.19 in 10.0 mi Calm Calm - N/A   Overcast
11:08 PM 46.4 °F 45.2 °F 44.6 °F 93% 30.18 in 10.0 mi SSW 3.5 mph - N/A   Overcast
11:46 PM 46.4 °F 43.5 °F 44.6 °F 93% 30.18 in 10.0 mi SSW 5.8 mph - N/A   Overcast
11:53 PM 46.4 °F 44.3 °F 44.6 °F 93% 30.18 in 10.0 mi South 4.6 mph - N/A   Overcast